EDT,Max TemperatureF,Mean TemperatureF,Min TemperatureF,Max Dew PointF,MeanDew PointF,Min DewpointF,Max Humidity, Mean Humidity, Min Humidity, Max Sea Level PressureIn, Mean Sea Level PressureIn, Min Sea Level PressureIn, Max VisibilityMiles, Mean VisibilityMiles, Min VisibilityMiles, Max Wind SpeedMPH, Mean Wind SpeedMPH, Max Gust SpeedMPH,PrecipitationIn, CloudCover, Events, WindDirDegrees
2013-3-1,65,61,57,54,47,43,72,60,48,29.99,29.94,29.91,10,10,10,16,9,20,T,7,Rain,301
2013-3-2,68,59,50,46,38,31,67,49,31,30.04,29.99,29.96,10,10,10,25,12,32,0.00,6,,305
2013-3-3,62,55,47,40,37,33,71,55,39,30.14,30.03,29.97,10,10,10,24,12,30,0.00,3,,301
2013-3-4,65,52,38,45,34,24,79,51,22,30.21,30.16,30.12,10,10,10,22,9,29,0.00,0,,344
2013-3-5,75,62,48,55,51,43,86,68,49,30.18,30.13,30.09,10,10,10,18,7,28,0.00,1,,175
2013-3-6,76,64,52,61,49,27,93,59,24,30.09,30.03,29.95,10,10,6,28,14,35,T,2,Rain,262
2013-3-7,70,58,46,54,43,34,86,62,37,30.18,30.13,30.08,10,10,10,20,9,24,0.00,1,,338
2013-3-8,75,62,49,51,47,41,93,62,31,30.21,30.16,30.11,10,10,10,15,7,26,0.00,1,,341
2013-3-9,74,63,52,53,51,48,93,71,49,30.19,30.16,30.11,10,10,10,17,8,23,0.00,4,,31
2013-3-10,76,71,66,57,53,50,66,55,43,30.16,30.11,30.08,10,10,10,20,13,24,T,5,,90
2013-3-11,78,73,67,61,58,55,68,58,47,30.10,30.03,29.96,10,10,10,21,14,25,0.00,4,,125
2013-3-12,80,75,69,69,64,59,79,69,58,30.00,29.96,29.92,10,10,10,16,12,23,T,5,Rain,183
2013-3-13,74,65,56,64,54,41,93,64,34,30.13,30.04,29.98,10,10,10,20,10,26,0.00,6,,321
2013-3-14,70,61,52,51,44,37,86,59,31,30.21,30.16,30.09,10,10,10,21,12,26,0.00,3,,342
2013-3-15,71,60,49,52,47,43,80,62,44,30.25,30.20,30.16,10,10,10,13,8,17,0.00,3,,355
2013-3-16,75,64,52,54,51,46,93,66,38,30.20,30.15,30.09,10,10,10,18,6,23,0.00,2,,158
2013-3-17,77,67,57,59,55,52,80,65,50,30.16,30.09,30.05,10,10,10,22,7,26,0.00,5,,142
2013-3-18,81,73,65,70,64,59,93,78,62,30.07,30.02,29.97,10,9,4,23,10,29,0.57,7,Rain,162
2013-3-19,78,73,67,68,65,63,93,77,60,30.01,29.95,29.89,10,10,10,21,5,25,T,7,,298
2013-3-20,82,72,62,67,63,54,100,75,49,29.97,29.91,29.81,10,8,2,22,8,29,T,5,Rain,254
2013-3-21,75,66,56,61,51,42,93,63,33,29.95,29.89,29.83,10,10,10,16,8,22,0.00,2,,344
2013-3-22,77,66,54,69,57,48,87,69,50,30.01,29.95,29.91,10,10,10,20,8,25,0.02,5,,139
2013-3-23,86,79,72,72,70,69,93,77,61,29.98,29.91,29.80,10,10,10,22,8,28,T,5,Rain,184
2013-3-24,90,80,70,72,70,63,93,70,47,29.88,29.77,29.68,10,9,3,32,14,45,0.38,5,Rain-Thunderstorm,209
2013-3-25,81,71,60,72,59,35,93,60,26,29.99,29.82,29.74,10,10,7,17,10,21,0.00,5,,278
2013-3-26,68,59,49,40,33,27,55,39,22,30.22,30.09,29.99,10,10,10,22,14,28,0.00,3,,318
2013-3-27,68,57,45,44,38,30,77,55,32,30.25,30.21,30.17,10,10,10,18,10,23,0.00,1,,344
2013-3-28,70,59,47,47,42,31,80,52,23,30.27,30.22,30.18,10,10,10,15,9,20,0.00,1,,356
2013-3-29,75,63,51,50,47,43,77,58,38,30.29,30.24,30.21,10,10,10,16,8,21,0.00,3,,20
2013-3-30,74,65,55,53,49,46,83,61,38,30.27,30.22,30.18,10,10,10,16,8,23,0.00,2,,110
2013-3-31,80,69,57,64,59,53,86,69,51,30.18,30.12,30.05,10,10,10,22,10,29,0.00,3,,148